Regional Weather Roundup
Issued by NWS

Home | Current Version | Previous Version | Text Only | Print | Product List | Glossary On
Versions: 1 2 3 4 5 6 7 8 9 10 11 12 13 14 15 16 17 18 19 20 21 22 23 24 25 26 27 28 29 30 31 32 33 34 35 36 37 38 39 40 41 42 43 44 45 46 47 48 49 50
000
ASUS43 KDTX 220810
RWRMI
MICHIGAN HOURLY REGIONAL WEATHER ROUNDUP
NATIONAL WEATHER SERVICE DETROIT/PONTIAC MI
300 AM EST MON DEC 22 2014

NOTE: "FAIR" INDICATES FEW OR NO CLOUDS BELOW 12,000 FEET WITH NO
SIGNIFICANT WEATHER AND/OR OBSTRUCTION TO VISIBILITY.

MIZ047>049-052>055-059>063-066>070-074>076-081>083-220900-
SOUTHEAST LOWER MICHIGAN

CITY           SKY/WX    TMP DP  RH WIND       PRES   REMARKS
ADRIAN         MOCLDY    25  22  88 E6        30.13F FOG
ALMA           PTCLDY    28  26  92 SE6       30.11S FOG
ANN ARBOR      PTCLDY    27  23  85 E6        30.13F FOG
BAD AXE        CLOUDY    30  26  84 SE6       30.17R
DETROIT CITY   PTCLDY    29  22  75 SE6       30.16F
DETROIT        MOCLDY    27  24  89 E3        30.15F FOG
FLINT          PTCLDY    29  23  78 SE8       30.13F HAZE
GROSSE ILE     PTCLDY    28  25  86 E5        30.14F
HILLSDALE      PTCLDY    26  24  91 SE9       30.08S FOG
HOWELL         MOCLDY    26  25  94 SE10      30.11S FOG

CITY           SKY/WX    TMP DP  RH WIND       PRES   REMARKS
JACKSON        MOCLDY    26  22  84 SE7       30.10S FOG
LAMBERTVILLE   MOCLDY    28  23  80 SE3       30.13F
LANSING        MOCLDY    28  23  81 SE9       30.10F HAZE
LAPEER         NOT AVBL
MASON          MOCLDY    27  24  87 SE8G17    30.10S FOG
MONROE         PTCLDY    28  27  93 E3        30.13S
MT. CLEMENS    CLOUDY    31  26  82 SE8       30.14F
PONTIAC        PTCLDY    26  23  88 SE7       30.12F
PORT HOPE        N/A     31  23  72 S9        30.15F
PORT HURON     CLOUDY    28  27  93 SE3       30.18S
TRI CITIES       N/A     31  23  72 SE9       30.13S
YPSILANTI      PTCLDY    29  22  75 E6        30.15F HAZE
$$
MIZ043>046-050>051-056>058-064>065-071>073-077>080-220900-
SOUTHWEST LOWER MICHIGAN

CITY           SKY/WX    TMP DP  RH WIND       PRES   REMARKS
BATTLE CREEK   MOCLDY    29  22  75 SE8       30.08S
BENTON HARBOR  PTCLDY    29  25  85 SE10      30.04F
BIG RAPIDS     CLOUDY    29  28  94 S6        30.07R FOG
COLDWATER      PTCLDY    28  23  84 SE7       30.08S
HOLLAND        MOCLDY    32  25  75 SE9       30.07R
GRAND RAPIDS   MOCLDY    27  23  85 SE7       30.07F FOG
KALAMAZOO      PTCLDY    28  23  81 SE5       30.07F HAZE
MARSHALL       MOCLDY    26  22  85 SE6       30.09S
MUSKEGON       CLOUDY    33  25  72 SE8       30.06S
$$
MIZ016>042-220900-
NORTHERN LOWER MICHIGAN

CITY           SKY/WX    TMP DP  RH WIND       PRES   REMARKS
ALPENA         CLOUDY    30  25  81 S14       30.13F
BEAVER ISLAND  CLOUDY    33  29  86 SE7       30.04S
BELLAIRE       MOCLDY    32  26  81 SE5       30.08R
CADILLAC         N/A     28  25  88 SE10      30.03S FOG
CHARLEVOIX     CLOUDY    32  27  84 SE9       30.08S
FRANKFORT      CLOUDY    32  28  83 SE9G17    30.05R
GAYLORD        CLOUDY    27  23  85 S9        30.05S
GRAYLING       MOCLDY    28  25  89 SE7       30.08S
HARBOR SPRINGS MOCLDY    31  26  79 SE3       30.07S
HOUGHTON LAKE  MOCLDY    26  22  84 SE5       30.08S
MANISTEE       CLOUDY    30  25  80 SE6       30.05S
OSCODA         CLOUDY    31  26  83 S7        30.15S
PELLSTON       CLOUDY    31  25  78 S9        30.08S
TRAVERSE CITY  MOCLDY    32  26  78 SE6       30.05R
$$
MIZ007>008-015-220900-
EASTERN UPPER MICHIGAN

CITY           SKY/WX    TMP DP  RH WIND       PRES   REMARKS
KINROSS        CLOUDY    32  30  93 S9G16     30.06F
MACKINAC ISLAN CLOUDY    32  26  79 SE13G20   30.06S
NEWBERRY       CLOUDY    32  30  93 SE13G20   30.01S
S. S. MARIE    LGT SNOW  32  28  85 SE8       30.08R FOG
$$
MIZ004>006-011>014-085-220900-
CENTRAL UPPER MICHIGAN

CITY           SKY/WX    TMP DP  RH WIND       PRES   REMARKS
MANISTIQUE     LGT RAIN  34  32  94 S16       30.00S
ESCANABA       CLOUDY    36  32  87 S10G16    29.96S
MENOMINEE      CLOUDY    36  30  80 S9G16     29.95S
SAWYER-GWINN   CLOUDY    33  32  95 S15       29.91R FOG
$$
MIZ001>003-009>011-084-220900-
WESTERN UPPER MICHIGAN

CITY           SKY/WX    TMP DP  RH WIND       PRES   REMARKS
IRON MOUNTAIN  CLOUDY    33  30  88 S12       29.89S FOG
HOUGHTON       LGT SNOW  32  31  96 S8        29.83S FOG
COPPER HARBOR    N/A     36  33  89 SW9G17    29.85F
IRONWOOD       CLOUDY    34  32  93 E3        29.75S
$$

ABBREVIATIONS USED IN REMARKS
   TC - TEMPERATURE IN CELSIUS
  WCI - WIND CHILL INDEX
   HX - HEAT INDEX
  VSB - VISIBILITY



USA.gov is the U.S. government's official web portal to all federal, state and local government web resources and services.